map of INI home
INI - Airport
Location
City:  Nis, Serbia
Name:Constantine the Great International Airport
Old (Alt.):Medosevac
ICAO:LYNI
IATA:INI

Details
Type:Airport (Aerodrome, Airfield)
Use:International (customs port of entry)
Latitude:4320'14"N (43.337289)
Longitude:2151'13"E (21.853722)
Datum:WGS 1984
Elevation:648 ft (198 m)
Variation:4.97E (WMM2015v2 magnetic declination)
0.13 annual change
Runways:1
Longest:8202 × 148 ft (2500 × 45 m), paved

Time
Time Zone:UTC+1 (DST+2)
Local Time:

Weather
METAR:LYNI 041400Z 32018KT 9999 FEW005 SCT010 OVC023 04/01 Q1025 NOSIG
TAF:LYNI 041100Z 0412/0512 32020G32KT 9999 SCT010 BKN027 TX04/0412Z TN02/0505Z
BECMG 0419/0421 32012KT
TEMPO 0422/0507 BKN007 OVC023

Related Locations
Nearby:
Farthest:CHT: 11523 mi / 18544 km
Waitangi [Tuuta], CIT, NZ

Find:

   beyond  
but within

Other Information
Maps:
NOTAMs:
Links:
Sources:

  
  • flag of Serbia
  

Sectional Chart

Flight Planning
at skyvector.com

Satellite Image

Google Maps Satellite view

 

Copyright © 2004-2019 Karl L. Swartz. All rights reserved.
The Great Circle Mapper name and logo are trademarks of the Great Circle Mapper.
All other trademarks mentioned herein belong to their respective owners.
Please see credits for attibutions and further copyright information.

  Follow gcmap on Facebook Follow gcmap on Twitter GCmap on LinkedIn

hCard Microformat

Geo Microformat